This is the latest recevied weather packets stored in our database for station/object K0CVS. If no packets are shown the sender has not sent any weather packets the latest 10 day(s).
| Time | Temp. | Humidity | Pressure | Rain* | Wind** | Luminosity | Snow |
|---|---|---|---|---|---|---|---|
| 1777923960 | 28.89° C | 38% | 1002.8 hPa | 0 mm | - | 571 W/m² | - |
| 1777923655 | 28.89° C | 37% | 1002.7 hPa | 0 mm | - | 608 W/m² | - |
| 1777923352 | 28.89° C | 39% | 1002.8 hPa | 0 mm | - | 692 W/m² | - |
| 1777923051 | 28.33° C | 39% | 1002.7 hPa | 0 mm | - | 701 W/m² | - |
| 1777922749 | 28.89° C | 39% | 1002.8 hPa | 0 mm | - | 708 W/m² | - |
| 1777922447 | 28.89° C | 38% | 1002.9 hPa | 0 mm | - | 717 W/m² | - |
| 1777922144 | 28.33° C | 40% | 1002.8 hPa | 0 mm | - | 722 W/m² | - |
| 1777921840 | 28.33° C | 38% | 1002.9 hPa | 0 mm | - | 731 W/m² | - |
| 1777921537 | 28.33° C | 38% | 1003 hPa | 0 mm | - | 654 W/m² | - |
| 1777921232 | 28.33° C | 39% | 1003 hPa | 0 mm | - | 740 W/m² | - |
| 1777920930 | 27.78° C | 39% | 1003 hPa | 0 mm | - | 736 W/m² | - |
| 1777920626 | 27.78° C | 40% | 1003.3 hPa | 0 mm | - | 699 W/m² | - |
| 1777920321 | 27.78° C | 40% | 1002.9 hPa | 0 mm | - | 656 W/m² | - |
| 1777920017 | 27.22° C | 41% | 1002.9 hPa | 0 mm | - | 726 W/m² | - |
| 1777919715 | 27.22° C | 39% | 1003.1 hPa | 0 mm | - | 676 W/m² | - |
| 1777919413 | 27.22° C | 40% | 1003.1 hPa | 0 mm | - | 756 W/m² | - |
| 1777919109 | 27.22° C | 39% | 1003.2 hPa | 0 mm | - | 751 W/m² | - |
| 1777918807 | 27.22° C | 41% | 1003.2 hPa | 0 mm | - | 729 W/m² | - |
| 1777918503 | 26.67° C | 41% | 1003.2 hPa | 0 mm | - | 752 W/m² | - |
| 1777918202 | 26.67° C | 40% | 1003.5 hPa | 0 mm | - | 703 W/m² | - |
| 1777917901 | 26.67° C | 41% | 1003.3 hPa | 0 mm | - | 748 W/m² | - |
| 1777917599 | 26.67° C | 41% | 1003.5 hPa | 0 mm | - | 750 W/m² | - |
| 1777917295 | 26.67° C | 42% | 1003.5 hPa | 0 mm | - | 746 W/m² | - |
| 1777916993 | 26.67° C | 39% | 1003.5 hPa | 0 mm | - | 743 W/m² | - |
| 1777916690 | 26.67° C | 41% | 1003.6 hPa | 0 mm | - | 748 W/m² | - |
* Rain latest hour (hover to see other rain measurements)
** Current wind speed in m/s (hover to see current wind gust speed)